Location: Unspecified
(49.2170°N, 0.0000°E)
Time: 15:57:13
(UTC+00:00)

Vanguard 1 - Pass Details

Date: 19 June 2021
Orbit: 651 x 3832 km, 34.2° (Epoch: 23 July)

Event Time Altitude Azimuth Distance (km) Brightness Sun altitude
Rises 23:48:13 0° 255° (WSW) 7,861 14.5 -17.3°
Reaches altitude 10° 23:54:15 10° 250° (WSW) 6,608 14.1 -17.3°
Maximum altitude 00:12:21 45° 188° (S) 3,246 12.2 -17.3°
Drops below altitude 10° 00:23:12 10° 120° (ESE) 4,077 13.0 -17.2°
Sets 00:25:58 0° 114° (ESE) 4,728 13.4 -17.2°
